This is the latest recevied weather packets stored in our database for station/object KE8AFF-13. If no packets are shown the sender has not sent any weather packets the latest 10 day(s).
| Time | Temp. | Humidity | Pressure | Rain* | Wind** | Luminosity | Snow |
|---|---|---|---|---|---|---|---|
| 1778162283 | 9.44° C | 65% | 1014.4 hPa | 0 mm | - | 599 W/m² | - |
| 1778161980 | 9.44° C | 66% | 1014.4 hPa | 0 mm | - | 603 W/m² | - |
| 1778161676 | 8.89° C | 67% | 1014.5 hPa | 0 mm | - | 573 W/m² | - |
| 1778161373 | 8.89° C | 68% | 1014.5 hPa | 0 mm | - | 554 W/m² | - |
| 1778161068 | 8.89° C | 69% | 1014.7 hPa | 0 mm | - | 528 W/m² | - |
| 1778160765 | 8.89° C | 69% | 1014.7 hPa | 0 mm | - | 466 W/m² | - |
| 1778160463 | 7.78° C | 69% | 1014.7 hPa | 0 mm | - | 432 W/m² | - |
| 1778160159 | 7.78° C | 70% | 1014.9 hPa | 0 mm | - | 410 W/m² | - |
| 1778159856 | 7.78° C | 71% | 1014.9 hPa | 0 mm | - | 391 W/m² | - |
| 1778159553 | 8.33° C | 71% | 1014.5 hPa | 0 mm | - | 299 W/m² | - |
| 1778159250 | 7.78° C | 72% | 1014.8 hPa | 0 mm | - | 305 W/m² | - |
| 1778158948 | 7.22° C | 72% | 1014.8 hPa | 0 mm | - | 222 W/m² | - |
| 1778158646 | 7.22° C | 71% | 1014.8 hPa | 0 mm | - | 184 W/m² | - |
| 1778158343 | 7.78° C | 72% | 1014.8 hPa | 0 mm | - | 226 W/m² | - |
| 1778158040 | 7.78° C | 73% | 1014.9 hPa | 0 mm | - | 320 W/m² | - |
| 1778157737 | 7.22° C | 73% | 1014.9 hPa | 0 mm | - | 242 W/m² | - |
| 1778157435 | 7.22° C | 73% | 1014.7 hPa | 0 mm | - | 191 W/m² | - |
| 1778157132 | 7.22° C | 74% | 1014.9 hPa | 0 mm | - | 221 W/m² | - |
| 1778156827 | 7.22° C | 75% | 1014.7 hPa | 0 mm | - | 185 W/m² | - |
| 1778156524 | 7.22° C | 75% | 1015 hPa | 0 mm | - | 212 W/m² | - |
| 1778156219 | 6.67° C | 76% | 1014.9 hPa | 0 mm | - | 217 W/m² | - |
| 1778155915 | 6.67° C | 75% | 1014.9 hPa | 0 mm | - | 156 W/m² | - |
| 1778155612 | 6.67° C | 75% | 1014.9 hPa | 0 mm | - | 115 W/m² | - |
| 1778155309 | 6.67° C | 75% | 1014.8 hPa | 0 mm | - | 123 W/m² | - |
| 1778155005 | 6.67° C | 75% | 1014.6 hPa | 0 mm | - | 117 W/m² | - |
* Rain latest hour (hover to see other rain measurements)
** Current wind speed in m/s (hover to see current wind gust speed)